This demonstration page uses our WeatherBlox Daily Observations layout. Learn more.

Left ArrowRight Arrow

44.89941, -97.11507

Hourly Observations for August 5, 2016

Temp ( °F °C ) Dew Point ( °F °C ) Humidity (%) Winds ( mph kmh ) Pressure ( in mb ) Visibility ( mi km ) Precip ( " mm )
12:53 am 00:53 Clear 63 17.2 58 14.4 84 84 Calm 30.00 1016 10 16 0.00 0.00
1:53 am 01:53 Clear 62 16.7 57 13.9 84 84 N 3 6 30.00 1016 10 16 0.00 0.00
2:53 am 02:53 Clear 57 13.9 55 12.8 93 93 N 6 9 29.99 1016 10 16 0.00 0.00
3:53 am 03:53 Clear 58 14.4 55 12.8 90 90 Calm 30.01 1016 10 16 0.00 0.00
4:53 am 04:53 Clear 56 13.3 54 12.2 93 93 N 3 6 30.02 1017 10 16 0.00 0.00
5:53 am 05:53 Clear 56 13.3 54 12.2 93 93 Calm 30.05 1018 7 11 0.00 0.00
5:59 am 05:59 Clear with Mist and Fog 55 12.8 53 11.7 93 93 Calm 30.03 1017 2 2 0.00 0.00
6:01 am 06:01 Clear with Mist and Fog 55 12.8 53 11.7 93 93 Calm 30.03 1017 1 1 0.00 0.00
6:11 am 06:11 Clear with Mist and Fog 53 11.7 52 11.1 96 96 SW 3 6 30.06 1018 2 3 0.00 0.00
6:13 am 06:13 Clear with Mist and Fog 53 11.7 52 11.1 96 96 WSW 3 6 30.06 1018 4 6 0.00 0.00
6:53 am 06:53 Sunny 58 14.4 55 12.8 90 90 W 3 6 30.06 1018 10 16 0.00 0.00
7:53 am 07:53 Sunny 63 17.2 59 15 87 87 Calm 30.07 1018 10 16 0.00 0.00
8:53 am 08:53 Sunny 67 19.4 55 12.8 66 66 NNW 5 7 30.07 1018 10 16 0.00 0.00
9:53 am 09:53 Sunny 71 21.7 55 12.8 57 57 NW 6 9 30.08 1019 10 16 0.00 0.00
10:53 am 10:53 Sunny 73 22.8 53 11.7 50 50 NNW 10 17 30.08 1019 10 16 0.00 0.00
11:53 am 11:53 Sunny 75 23.9 52 11.1 45 45 NNW 12 19 30.09 1019 10 16 0.00 0.00
12:53 pm 12:53 Sunny 77 25 52 11.1 42 42 NW 14 22 30.08 1019 10 16 0.00 0.00
1:53 pm 13:53 Sunny 77 25 50 10 39 39 N 12 19 30.07 1018 10 16 0.00 0.00
2:53 pm 14:53 Sunny 78 25.6 52 11.1 40 40 NNW 16 26 30.07 1018 10 16 0.00 0.00
3:53 pm 15:53 Sunny 79 26.1 52 11.1 39 39 NW 10 17 30.06 1018 10 16 0.00 0.00
4:53 pm 16:53 Sunny 79 26.1 52 11.1 39 39 N 8 13 30.05 1018 10 16 0.00 0.00
5:53 pm 17:53 Sunny 79 26.1 53 11.7 41 41 N 9 15 30.04 1017 10 16 0.00 0.00
6:53 pm 18:53 Sunny 78 25.6 52 11.1 40 40 N 12 19 30.04 1017 10 16 0.00 0.00
7:53 pm 19:53 Sunny 75 23.9 55 12.8 50 50 N 9 15 30.04 1017 10 16 0.00 0.00
8:53 pm 20:53 Clear 68 20 57 13.9 68 68 NNE 6 9 30.05 1018 10 16 0.00 0.00
9:53 pm 21:53 Clear 67 19.4 56 13.3 68 68 Calm 30.06 1018 10 16 0.00 0.00
10:53 pm 22:53 Clear 67 19.4 55 12.8 66 66 Calm 30.07 1018 10 16 0.00 0.00
11:53 pm 23:53 Clear 64 17.8 55 12.8 73 73 Calm 30.08 1019 10 16 0.00 0.00

Powered by AerisWeather